Weather History for Jamestown, ND

Change the Weather History Date:

Tuesday, August 27, 2013

  Actual Average Record
Temperature  
Mean Temperature 78 °F 66 °F  
Max Temperature 93 °F 79 °F 103 °F (1973)
Min Temperature 62 °F 53 °F 32 °F (1982)
Degree Days  
Heating Degree Days 0 3  
Month to date heating degree days 21 34  
Since 1 June heating degree days 129 153  
Since 1 July heating degree days 44 56  
Cooling Degree Days 13 3  
Month to date cooling degree days 127 133  
Year to date cooling degree days 420 405  
Since 1 June cooling degree days 409 385  
Growing Degree Days 28 (Base 50)    
Moisture  
Dew Point 64 °F    
Average Humidity 69    
Maximum Humidity 100    
Minimum Humidity 38    
Precipitation  
Precipitation 0.01 in 0.07 in 1.19 in (1954)
Month to date precipitation 0.95 1.80  
Year to date precipitation 8.94 13.89  
Sea Level Pressure  
Sea Level Pressure 29.88 in    
Wind  
Wind Speed 3 mph (NNE)    
Max Wind Speed 9 mph    
Max Gust Speed 14 mph    
Visibility 10 miles    
Events Rain    
T = Trace of Precipitation, MM = Missing Value Source: NWS Daily Summary

Daily Weather History Graph

Daily Weather History Graph

Search for Another Location

Airport:

Trip Planner

Search our weather history database for the weather conditions in past years. The results will help you decide how hot, cold, wet, or windy it might be!

Date:

Astronomy

Aug. 27, 2013 Rise Set
Actual Time 6:48 AM CDT 8:23 PM CDT
Civil Twilight 6:16 AM CDT 8:55 PM CDT
Nautical Twilight 5:37 AM CDT 9:33 PM CDT
Astronomical Twilight 4:55 AM CDT 10:15 PM CDT
Moon 11:48 PM CDT (8/27) 2:16 PM CDT (8/27)
Length of Visible Light 14h 38m
Length of Day
13h 35m
Waning Gibbous, 57% of the Moon is Illuminated
Aug 27
Waning Gibbous
Aug 28
Last Quarter
Sep 5
New
Sep 12
First Quarter
Sep 19
Full

Hourly Weather History & Observations

Time (CDT) Temp. Heat Index Dew Point Humidity Pressure Visibility Wind Dir Wind Speed Gust Speed Precip Events Conditions
12:56 AM 66.0 °F - 63.0 °F 90% 29.85 in 10.0 mi Calm Calm - N/A   Clear
1:56 AM 64.0 °F - 62.1 °F 93% 29.85 in 10.0 mi Calm Calm - N/A   Clear
2:56 AM 64.0 °F - 62.1 °F 93% 29.84 in 10.0 mi NW 3.5 mph - N/A   Clear
3:56 AM 63.0 °F - 61.0 °F 93% 29.85 in 10.0 mi NNW 3.5 mph - N/A   Clear
4:56 AM 62.1 °F - 61.0 °F 96% 29.85 in 10.0 mi NW 3.5 mph - N/A   Clear
5:56 AM 63.0 °F - 62.1 °F 97% 29.86 in 8.0 mi North 4.6 mph - N/A   Clear
6:56 AM 62.1 °F - 61.0 °F 96% 29.88 in 6.0 mi North 3.5 mph - N/A   Clear
7:56 AM 66.0 °F - 63.0 °F 90% 29.88 in 9.0 mi NNW 3.5 mph - N/A   Clear
8:56 AM 72.0 °F - 66.0 °F 81% 29.89 in 10.0 mi Calm Calm - N/A   Clear
9:56 AM 78.1 °F - 66.0 °F 66% 29.90 in 10.0 mi Calm Calm - N/A   Clear
10:56 AM 82.0 °F 84.1 °F 66.0 °F 58% 29.90 in 10.0 mi SE 5.8 mph - N/A   Clear
11:56 AM 86.0 °F 88.2 °F 66.0 °F 51% 29.90 in 10.0 mi Calm Calm - N/A   Clear
12:56 PM 89.1 °F 91.0 °F 64.9 °F 45% 29.88 in 10.0 mi SSE 8.1 mph - N/A   Clear
1:56 PM 90.0 °F 90.6 °F 63.0 °F 40% 29.89 in 10.0 mi NW 3.5 mph - N/A   Clear
2:56 PM 91.0 °F 91.9 °F 63.0 °F 39% 29.88 in 10.0 mi Variable 3.5 mph - N/A   Clear
3:56 PM 93.0 °F 94.6 °F 64.0 °F 38% 29.87 in 10.0 mi NE 5.8 mph - N/A   Clear
4:56 PM 93.0 °F 94.6 °F 64.0 °F 38% 29.87 in 10.0 mi NE 6.9 mph - N/A   Clear
5:56 PM 88.0 °F 89.6 °F 64.9 °F 46% 29.88 in 10.0 mi ENE 5.8 mph - N/A   Clear
6:56 PM 84.0 °F 86.3 °F 66.0 °F 55% 29.88 in 10.0 mi ENE 4.6 mph - N/A   Clear
7:56 PM 82.0 °F 83.8 °F 64.9 °F 56% 29.89 in 10.0 mi East 4.6 mph - N/A   Clear
8:56 PM 80.1 °F 81.9 °F 64.9 °F 60% 29.91 in 10.0 mi ESE 4.6 mph - N/A   Clear
9:56 PM 77.0 °F - 69.1 °F 76% 29.93 in 10.0 mi South 3.5 mph - 0.00 in Rain Light Rain
10:56 PM 75.0 °F - 69.1 °F 82% 29.93 in 10.0 mi Calm Calm - 0.00 in Rain Light Rain
11:56 PM 73.9 °F - 70.0 °F 87% 29.92 in 10.0 mi Calm Calm - 0.01 in   Clear